sat.trackr.live / text

‹ back to catalog

TIANHUI 2-01A

NORAD 44207 · 2019-024A

PAYLOAD ACTIVE UNKNOWN

§ Identity

Operator
Country
PRC
Launch date
2019-04-29
Launch site
TAISC
Launch vehicle
Mass (kg)
RCS (m²)

External: N2YO · Heavens-Above · Gunter

§ Orbital elements

Epoch: 2026-05-24T11:24:43.150752Z

Period
94.94 min
Inclination
97.4801°
Eccentricity
0.0001516
Mean motion
15.16745604 rev/d
Perigee alt
514.6 km
Apogee alt
516.7 km
Semi-major
6,893.8 km
B*
7.1211e-5
RAAN
148.7277°
Arg perigee
111.8799°
Mean anomaly
248.2596°
Rev number
9,854

§ Raw data

TIANHUI 2-01A1 44207U 19024A   26144.47549943  .00001330  00000+0  71211-4 0  99972 44207  97.4801 148.7277 0001516 111.8799 248.2596 15.16745604 98544

JSON: /api/v1/satellites/44207 · /tle

For live sub-satellite position, see the globe view (requires WebGL).

§ Visibility from observer

Set your observer location to see the next 7 days of passes ≥ 10°. The values pass through the URL so the page stays shareable.

No JS? Fill the form by hand. The geolocation button needs JavaScript.